Tracking 19145 objects as of 26-Apr-2018
HD Live streaming from Space Station
objects crossing your sky now

FENGYUN 1C DEB

Track FENGYUN 1C DEB now!
10-day predictions


NORAD ID: 37454
Int'l Code: 1999-025EHY
Perigee: 583.4 km
Apogee: 644.1 km
Inclination: 99.0 °
Period: 96.8 minutes
Semi major axis: 6984 km
RCS: 0.0119 m2 (small)
Launch date: May 10, 1999
Source: People's Republic of China (PRC)
Launch site: Taiyaun Space Center, China (TSC)

Note: This is SATELLITE DEBRIS
aabbcc
Your satellite tracking list
Your tracking list is empty




NASA's NSSDC Master Catalog

Two Line Element Set (TLE):
1 37454U 99025EHY 18114.47386413  .00183121  00000-0  19500-1 0  9991
2 37454  98.9726  91.5242 0043435 181.6162 178.4916 14.87222479424937
Source of the keplerian elements: AFSPC